Volver al catálogo

STARLINK-31865

ActivoComunicacionesVLEO
NORAD 59791·PAYLOAD·🇺🇸 United States

Lanzado May 18, 2024 desde Cape Canaveral Space Force Station

Loading…

Próximos Pases (próximas 24 horas)

TLE

ActualizadoSource: CelesTrak SupGP

Época: Sep 15, 2026, 01:50 UTC

1 59791C 24093K   26258.07687500 -.00051472  00000+0 -18644-2 0  2588
2 59791  43.0017 219.2458 0001358 268.6906 350.2700 15.27601935    10

Sigue STARLINK-31865 en tiempo real con AllMySat

Download on the App Store